Waarnemingen

Advertentie
Mijn weer
La Coruna, Spanje (8001): temperatuur & dauwpunt: 07.11.2019 17:00:00 - 13.11.2019 17:00:00 (CET)La Coruna, Spanje (8001): windsnelheid: 07.11.2019 17:00:00 - 13.11.2019 17:00:00 (CET)La Coruna, Spanje (8001): windrichting: 07.11.2019 17:00:00 - 13.11.2019 17:00:00 (CET)La Coruna, Spanje (8001): luchtdruk: 07.11.2019 17:00:00 - 13.11.2019 17:00:00 (CET)La Coruna, Spanje (8001): zicht: 07.11.2019 17:00:00 - 13.11.2019 17:00:00 (CET)La Coruna, Spanje (8001): neerslag: 07.11.2019 17:00:00 - 13.11.2019 17:00:00 (CET)
Datum & Tijd tt [°C] td [°C] ff [km/u] ff [kn] dd ppp [hPa] vv [km] rr [mm]
13.11.2019 17:00:00 - - - - - - - -
13.11.2019 16:00:00 13,3 10,1 21 11 WZW 1014,3 16 -
13.11.2019 15:00:00 14,2 9,2 16 9 W 1014,9 19 0,0
13.11.2019 14:00:00 14,1 9,3 15 8 W 1015,7 19 0,0
13.11.2019 13:00:00 12,8 9,6 8 4 WZW 1016,6 21 -
13.11.2019 12:00:00 13,2 8,7 13 7 NW 1017,4 17 0,0
13.11.2019 11:00:00 12,5 10,2 4 2 WNW 1016,7 12 0,2
13.11.2019 10:00:00 12,5 10,2 2 1 WZW 1016,1 11 -
13.11.2019 09:00:00 12,3 10,4 8 4 ONO 1015,7 13 0,0
13.11.2019 08:00:00 12,2 10,6 13 7 NO 1014,9 11 0,0
13.11.2019 07:00:00 12,3 10,7 15 8 NNO 1014,1 11 -
13.11.2019 06:00:00 12,2 11,4 15 8 NO 1012,6 9 0,0
13.11.2019 05:00:00 12,5 12,0 21 11 NNO 1011,6 8 0,0
13.11.2019 04:00:00 13,1 11,7 21 11 NNO 1010,9 12 -
13.11.2019 03:00:00 13,2 12,7 18 10 NNO 1010,0 4,0 0,0
13.11.2019 02:00:00 13,3 12,8 15 8 NNO 1009,1 7 0,2
13.11.2019 01:00:00 13,5 13,3 15 8 N 1007,9 6 -
13.11.2019 00:00:00 13,7 13,5 16 9 N 1007,5 2,3 1,0
12.11.2019 23:00:00 15,2 14,9 22 12 WNW 1006,8 2,8 5,0
12.11.2019 22:00:00 15,4 15,2 24 13 W 1006,4 4,0 -
12.11.2019 21:00:00 15,4 15,2 24 13 W 1006,9 2,4 0,8
12.11.2019 20:00:00 15,4 15,2 26 14 W 1007,4 3,0 0,0
12.11.2019 19:00:00 15,4 15,1 28 15 WZW 1007,8 2,5 -
12.11.2019 18:00:00 15,3 15,0 34 18 WZW 1007,9 2,5 4,0
12.11.2019 17:00:00 15,1 14,8 29 16 WZW 1008,4 2,6 4,0
12.11.2019 16:00:00 15,0 14,5 29 16 WZW 1009,3 1,8 -
12.11.2019 15:00:00 14,2 13,2 28 15 ZW 1010,1 2,1 2,0
12.11.2019 14:00:00 13,7 12,1 16 9 ZZW 1011,7 2,6 0,6
12.11.2019 13:00:00 13,8 11,1 13 7 ZZW 1013,5 15 -
12.11.2019 12:00:00 12,2 10,3 9 5 Z 1015,3 19 0,2
12.11.2019 11:00:00 11,4 10,0 11 6 Z 1016,2 6 0,6
12.11.2019 10:00:00 11,4 9,8 8 4 Z 1017,6 10 -
12.11.2019 09:00:00 11,3 9,6 11 6 ZW 1018,2 5 0,0
12.11.2019 08:00:00 10,7 9,3 9 5 ZZW 1018,6 13 0,0
12.11.2019 07:00:00 10,6 9,5 15 8 ZW 1019,2 12 -
12.11.2019 06:00:00 11,3 9,0 15 8 WZW 1019,7 6 0,0
12.11.2019 05:00:00 11,4 8,6 15 8 ZW 1019,7 12 0,4
12.11.2019 04:00:00 11,7 8,5 13 7 ZW 1020,2 15 -
12.11.2019 03:00:00 11,8 7,9 15 8 ZW 1020,8 11 0,0
12.11.2019 02:00:00 12,2 7,1 9 5 ZW 1021,2 14 0,0
12.11.2019 01:00:00 12,3 6,3 11 6 W 1022,2 15 -
12.11.2019 00:00:00 11,9 6,6 11 6 WNW 1022,7 14 0,0
11.11.2019 23:00:00 11,9 6,4 5 3 WNW 1022,9 13 0,0
11.11.2019 22:00:00 12,5 6,5 11 6 WNW 1023,1 15 -
11.11.2019 21:00:00 12,7 7,6 11 6 NW 1022,6 12 0,0
11.11.2019 20:00:00 12,8 7,9 8 4 WNW 1022,8 11 0,0
11.11.2019 19:00:00 13,0 7,2 9 5 NNW 1022,7 12 -
11.11.2019 18:00:00 13,2 7,0 11 6 N 1022,6 13 0,0
11.11.2019 17:00:00 13,5 6,8 8 4 NNW 1022,4 13 0,0
11.11.2019 16:00:00 13,8 6,4 15 8 N 1022,3 13 -
11.11.2019 15:00:00 14,1 7,2 18 10 N 1022,5 13 0,0
11.11.2019 14:00:00 14,2 7,9 16 9 N 1022,8 10 0,0
11.11.2019 13:00:00 13,6 8,8 13 7 NNO 1022,9 15 -
11.11.2019 12:00:00 14,1 7,4 16 9 N 1023,0 10 0,0
11.11.2019 11:00:00 13,6 8,6 26 14 N 1022,4 9 0,0
11.11.2019 10:00:00 13,7 8,7 22 12 N 1022,0 15 -
11.11.2019 09:00:00 13,7 10,3 22 12 NNW 1021,2 8 0,0
11.11.2019 08:00:00 13,5 11,2 22 12 NNW 1020,2 8 0,2
11.11.2019 07:00:00 13,9 13,7 18 10 NNW 1019,0 10 -
11.11.2019 06:00:00 14,5 14,3 21 11 NW 1018,4 2,1 0,2
11.11.2019 05:00:00 14,9 14,7 21 11 WNW 1018,2 12 0,6
11.11.2019 04:00:00 14,3 14,1 16 9 WZW 1018,4 4,0 -
11.11.2019 03:00:00 13,8 13,5 16 9 WZW 1018,8 1,3 0,8
11.11.2019 02:00:00 12,8 12,6 13 7 WZW 1018,7 - 0,0
11.11.2019 01:00:00 11,3 10,2 9 5 Z 1019,3 18 -
11.11.2019 00:00:00 10,3 9,4 11 6 ZZO 1019,4 20 0,2
10.11.2019 23:00:00 9,9 9,0 16 9 ZZO 1020,2 9 0,2
10.11.2019 22:00:00 9,9 9,3 13 7 ZZO 1021,1 18 -
10.11.2019 21:00:00 10,0 9,1 13 7 ZZO 1020,8 8 0,0
10.11.2019 20:00:00 9,9 9,1 11 6 ZZO 1020,8 9 0,2
10.11.2019 19:00:00 9,8 9,0 13 7 ZZO 1021,1 - -
10.11.2019 18:00:00 9,7 9,1 11 6 ZZO 1021,7 3,8 2,0
10.11.2019 17:00:00 9,9 9,1 9 5 ZZO 1021,8 2,5 1,0
10.11.2019 16:00:00 10,3 9,1 5 3 O 1022,3 3,0 -
10.11.2019 15:00:00 10,6 9,2 11 6 WNW 1022,6 2,8 0,8
10.11.2019 14:00:00 11,0 8,0 11 6 NW 1023,2 7 0,6
10.11.2019 13:00:00 11,0 8,0 11 6 NW 1023,6 10 -
10.11.2019 12:00:00 11,5 7,0 18 10 NW 1024,2 6 1,0
10.11.2019 11:00:00 12,2 6,0 26 14 NW 1023,2 9 0,6
10.11.2019 10:00:00 11,4 8,6 22 12 WNW 1023,3 18 -
10.11.2019 09:00:00 12,9 7,6 21 11 WNW 1022,8 12 0,0
10.11.2019 08:00:00 12,7 8,2 26 14 WNW 1022,5 12 0,0
10.11.2019 07:00:00 12,6 7,1 22 12 NW 1022,4 15 -
10.11.2019 06:00:00 12,1 6,6 28 15 WNW 1022,8 16 0,8
10.11.2019 05:00:00 12,1 6,2 21 11 WNW 1022,7 19 0,0
10.11.2019 04:00:00 11,3 6,8 24 13 WNW 1023,3 15 -
10.11.2019 03:00:00 11,3 6,8 22 12 WNW 1023,5 14 0,4
10.11.2019 02:00:00 12,9 5,6 22 12 WNW 1023,4 17 0,0
10.11.2019 01:00:00 12,8 6,2 24 13 WNW 1023,6 15 -
10.11.2019 00:00:00 12,2 6,9 18 10 WNW 1023,4 16 0,0
09.11.2019 23:00:00 12,7 4,4 21 11 NW 1023,4 18 0,0
09.11.2019 22:00:00 12,7 5,8 22 12 NW 1023,3 15 -
09.11.2019 21:00:00 12,3 7,8 16 9 NNW 1023,4 17 0,0
09.11.2019 20:00:00 11,9 6,8 28 15 WNW 1023,0 12 0,6
09.11.2019 19:00:00 12,9 9,5 29 16 NW 1022,2 11 -
09.11.2019 18:00:00 14,2 8,6 28 15 WNW 1021,5 14 0,0
09.11.2019 17:00:00 14,4 8,6 18 10 WNW 1021,3 16 0,0
09.11.2019 16:00:00 14,3 10,3 26 14 WNW 1020,9 13 -
09.11.2019 15:00:00 15,0 8,9 16 9 WNW 1020,7 14 0,0
09.11.2019 14:00:00 15,2 8,9 22 12 WNW 1020,9 15 0,0
09.11.2019 13:00:00 14,4 9,6 16 9 WNW 1021,0 15 -
09.11.2019 12:00:00 14,6 9,0 22 12 WNW 1020,9 12 0,0
09.11.2019 11:00:00 14,8 11,0 24 13 WNW 1020,0 13 0,0
09.11.2019 10:00:00 14,6 13,5 18 10 WNW 1019,4 20 -
09.11.2019 09:00:00 13,7 12,6 18 10 ZW 1018,5 13 0,4
09.11.2019 08:00:00 13,7 11,6 28 15 ZW 1017,7 14 0,0
09.11.2019 07:00:00 12,7 10,2 13 7 ZZW 1017,5 20 -
09.11.2019 06:00:00 11,2 9,3 8 4 ZZO 1018,5 14 0,2
09.11.2019 05:00:00 11,3 9,0 5 3 ZZO 1019,2 14 0,6
09.11.2019 04:00:00 11,8 7,5 8 4 Z 1020,2 20 -
09.11.2019 03:00:00 12,1 6,8 13 7 ZZW 1020,8 20 0,0
09.11.2019 02:00:00 12,1 6,8 8 4 Z 1021,7 19 0,0
09.11.2019 01:00:00 11,9 6,6 15 8 ZZW 1022,4 20 -
09.11.2019 00:00:00 11,7 6,6 15 8 ZW 1023,0 19 0,0
08.11.2019 23:00:00 11,8 7,1 13 7 ZW 1023,5 19 0,0
08.11.2019 22:00:00 11,9 7,2 15 8 ZZW 1022,8 20 -
08.11.2019 21:00:00 12,8 6,6 13 7 W 1023,0 19 0,0
08.11.2019 20:00:00 12,7 6,5 13 7 W 1022,9 18 0,0
08.11.2019 19:00:00 12,8 5,9 16 9 WNW 1022,7 19 -
08.11.2019 18:00:00 12,7 6,3 16 9 WNW 1022,3 18 0,0
08.11.2019 17:00:00 13,2 6,1 21 11 WNW 1022,3 18 0,0
08.11.2019 16:00:00 13,4 5,0 16 9 WNW 1021,6 19 -
08.11.2019 15:00:00 14,0 7,3 22 12 WNW 1021,6 16 0,0
08.11.2019 14:00:00 14,4 6,0 22 12 WNW 1021,4 19 0,0
08.11.2019 13:00:00 13,7 6,8 22 12 NW 1021,5 22 -
08.11.2019 12:00:00 14,0 7,1 18 10 WNW 1021,4 17 0,0
08.11.2019 11:00:00 13,6 7,6 24 13 WNW 1020,7 16 0,0
08.11.2019 10:00:00 12,6 6,8 22 12 NW 1020,0 20 -
08.11.2019 09:00:00 12,1 7,0 21 11 WNW 1019,1 15 0,0
08.11.2019 08:00:00 12,0 6,7 24 13 WNW 1018,2 15 0,0
08.11.2019 07:00:00 11,2 7,5 22 12 NW 1017,6 13 -
08.11.2019 06:00:00 11,4 7,1 24 13 NNW 1017,2 16 0,2
08.11.2019 05:00:00 10,4 6,9 18 10 WNW 1016,4 7 0,2
08.11.2019 04:00:00 11,0 5,3 34 18 WNW 1015,6 16 -
08.11.2019 03:00:00 10,2 7,6 22 12 WNW 1015,4 10 0,6
08.11.2019 02:00:00 10,4 5,8 28 15 WNW 1015,0 17 2,0
08.11.2019 01:00:00 10,9 6,0 31 17 WNW 1014,8 15 -
08.11.2019 00:00:00 10,8 6,2 24 13 WNW 1014,7 18 2,0
07.11.2019 23:00:00 11,4 6,5 26 14 NW 1014,1 15 0,2
07.11.2019 22:00:00 11,2 6,3 26 14 NW 1013,8 12 -
07.11.2019 21:00:00 11,1 5,4 21 11 NW 1013,6 13 0,2
07.11.2019 20:00:00 10,0 5,4 22 12 WNW 1013,7 14 0,6
07.11.2019 19:00:00 9,1 5,8 18 10 WZW 1013,6 18 -
07.11.2019 18:00:00 9,6 5,0 22 12 ZW 1013,5 17 0,2
07.11.2019 17:00:00 11,1 5,4 28 15 NW 1013,4 15 0,0

tt = temperatuur
td = dauwpunt
ff = windsnelheid
dd = windrichting
ppp = luchtdruk
vv = zicht
rr = neerslag

Weerstations in de omgeving